• In Hungary
  • List of Countries
  • For 7 days
  • Water Temperature
  • Satellite Maps
  • Weather Map
  • News
  • Weather Widgets
  • user-avatar
    Login

    Hourly Weather Albuquerque

    Today, 21 September, Friday

    Time Temperature Precipitation Wind Pressure Humidity
    00:00 +20°C° 0 mm 2 mps 637 mmHg 41%
    01:00 +20°C° 0 mm 2 mps 637 mmHg 41%
    02:00 +19°C° 0 mm 2 mps 637 mmHg 40%
    03:00 +19°C° 0 mm 2 mps 637 mmHg 40%
    04:00 +19°C° 0 mm 2 mps 637 mmHg 40%
    05:00 +19°C° 0 mm 2 mps 637 mmHg 40%
    06:00 +20°C° 0 mm 3 mps 638 mmHg 40%
    07:00 +21°C° 0 mm 4 mps 639 mmHg 40%
    08:00 +22°C° 0 mm 5 mps 640 mmHg 40%
    09:00 +23°C° 0 mm 6 mps 641 mmHg 39%
    10:00 +24°C° 0 mm 7 mps 641 mmHg 38%
    11:00 +27°C° 0 mm 8 mps 642 mmHg 36%
    12:00 +27°C° 0 mm 8 mps 642 mmHg 36%
    13:00 +27°C° 0 mm 8 mps 642 mmHg 36%
    14:00 +27°C° 0 mm 8 mps 641 mmHg 36%
    15:00 +26°C° 0 mm 8 mps 641 mmHg 38%
    16:00 +26°C° 0 mm 7 mps 641 mmHg 41%
    17:00 +24°C° 0 mm 6 mps 641 mmHg 44%
    18:00 +22°C° 0 mm 6 mps 641 mmHg 47%
    19:00 +21°C° 0 mm 5 mps 641 mmHg 51%
    20:00 +20°C° 0 mm 4 mps 642 mmHg 55%
    21:00 +20°C° 0 mm 3 mps 642 mmHg 56%
    22:00 +19°C° 0 mm 3 mps 642 mmHg 58%
    23:00 +18°C° 0 mm 3 mps 642 mmHg 59%

    Tomorrow, 22 September, Saturday

    Time Temperature Precipitation Wind Pressure Humidity
    00:00 +18°C° 0 mm 2 mps 641 mmHg 60%
    01:00 +17°C° 0 mm 2 mps 641 mmHg 62%
    02:00 +17°C° 0 mm 2 mps 641 mmHg 63%
    03:00 +16°C° 0 mm 1 mps 640 mmHg 64%
    04:00 +16°C° 0 mm 1 mps 640 mmHg 65%
    05:00 +15°C° 0 mm 1 mps 640 mmHg 65%
    06:00 +16°C° 0 mm 1 mps 640 mmHg 61%
    07:00 +18°C° 0 mm 1 mps 640 mmHg 56%
    08:00 +17°C° 0 mm 0 mps 641 mmHg 51%
    09:00 +21°C° 0 mm 1 mps 641 mmHg 46%
    10:00 +22°C° 0 mm 1 mps 641 mmHg 40%
    11:00 +24°C° 0 mm 1 mps 641 mmHg 35%
    12:00 +25°C° 0 mm 1 mps 640 mmHg 32%
    13:00 +26°C° 0 mm 1 mps 640 mmHg 29%
    14:00 +27°C° 0 mm 1 mps 640 mmHg 26%
    15:00 +27°C° 0 mm 2 mps 639 mmHg 26%
    16:00 +27°C° 0 mm 2 mps 639 mmHg 25%
    17:00 +27°C° 0 mm 2 mps 639 mmHg 24%
    18:00 +26°C° 0 mm 2 mps 639 mmHg 27%
    19:00 +25°C° 0 mm 2 mps 639 mmHg 30%
    20:00 +23°C° 0 mm 2 mps 639 mmHg 32%
    21:00 +23°C° 0 mm 2 mps 639 mmHg 34%
    22:00 +21°C° 0 mm 2 mps 639 mmHg 36%
    23:00 +20°C° 0 mm 2 mps 639 mmHg 38%

    Day after tomorrow, 23 September, Sunday

    Time Temperature Precipitation Wind Pressure Humidity
    00:00 +20°C° 0 mm 2 mps 638 mmHg 40%
    01:00 +19°C° 0 mm 2 mps 638 mmHg 42%
    02:00 +19°C° 0 mm 1 mps 638 mmHg 44%
    03:00 +19°C° 0 mm 1 mps 637 mmHg 46%
    04:00 +18°C° 0 mm 1 mps 637 mmHg 48%
    05:00 +18°C° 0 mm 1 mps 637 mmHg 50%
    06:00 +19°C° 0 mm 1 mps 637 mmHg 46%
    07:00 +21°C° 0 mm 1 mps 638 mmHg 43%
    08:00 +22°C° 0 mm 1 mps 638 mmHg 39%
    09:00 +23°C° 0 mm 2 mps 638 mmHg 35%
    10:00 +25°C° 0 mm 2 mps 638 mmHg 31%
    11:00 +26°C° 0 mm 2 mps 639 mmHg 27%
    12:00 +27°C° 0 mm 3 mps 638 mmHg 24%
    13:00 +28°C° 0 mm 3 mps 638 mmHg 22%
    14:00 +29°C° 0 mm 3 mps 637 mmHg 20%
    15:00 +29°C° 0 mm 3 mps 637 mmHg 19%
    16:00 +28°C° 0 mm 4 mps 636 mmHg 19%
    17:00 +28°C° 0 mm 4 mps 636 mmHg 18%
    18:00 +27°C° 0 mm 4 mps 636 mmHg 20%
    19:00 +25°C° 0 mm 3 mps 636 mmHg 22%
    20:00 +22°C° 0 mm 3 mps 636 mmHg 24%
    21:00 +22°C° 0 mm 3 mps 636 mmHg 28%
    22:00 +21°C° 0 mm 3 mps 636 mmHg 33%
    23:00 +21°C° 0 mm 2 mps 636 mmHg 37%

    24 September, Monday

    Time Temperature Precipitation Wind Pressure Humidity
    00:00 +20°C° 0 mm 2 mps 635 mmHg 40%
    01:00 +20°C° 0 mm 2 mps 635 mmHg 42%
    02:00 +19°C° 0 mm 2 mps 635 mmHg 45%
    03:00 +19°C° 0 mm 2 mps 635 mmHg 47%
    04:00 +18°C° 0 mm 2 mps 635 mmHg 48%
    05:00 +18°C° 0 mm 2 mps 635 mmHg 50%
    06:00 +20°C° 0 mm 2 mps 635 mmHg 45%
    07:00 +21°C° 0 mm 2 mps 636 mmHg 41%
    08:00 +23°C° 0 mm 2 mps 637 mmHg 37%
    09:00 +25°C° 0 mm 2 mps 637 mmHg 34%
    10:00 +27°C° 0 mm 2 mps 637 mmHg 30%
    11:00 +28°C° 0 mm 3 mps 637 mmHg 27%
    12:00 +29°C° 0 mm 3 mps 637 mmHg 26%
    13:00 +30°C° 0 mm 4 mps 637 mmHg 24%
    14:00 +30°C° 0 mm 4 mps 636 mmHg 22%
    15:00 +30°C° 0 mm 4 mps 636 mmHg 23%
    16:00 +30°C° 0 mm 4 mps 636 mmHg 23%
    17:00 +29°C° 0 mm 4 mps 636 mmHg 24%
    18:00 +28°C° 0 mm 4 mps 636 mmHg 26%
    19:00 +27°C° 0 mm 3 mps 636 mmHg 28%
    20:00 +25°C° 0 mm 2 mps 636 mmHg 31%
    21:00 +24°C° 0 mm 2 mps 636 mmHg 33%
    22:00 +23°C° 0 mm 2 mps 636 mmHg 36%
    23:00 +22°C° 0 mm 1 mps 636 mmHg 38%

    25 September, Tuesday

    Time Temperature Precipitation Wind Pressure Humidity
    00:00 +22°C° 0 mm 1 mps 635 mmHg 40%
    01:00 +21°C° 0 mm 1 mps 635 mmHg 41%
    02:00 +21°C° 0 mm 1 mps 635 mmHg 42%
    03:00 +20°C° 0 mm 1 mps 635 mmHg 43%
    04:00 +20°C° 0 mm 1 mps 635 mmHg 44%
    05:00 +19°C° 0 mm 1 mps 635 mmHg 45%
    06:00 +21°C° 0 mm 1 mps 636 mmHg 42%
    07:00 +22°C° 0 mm 1 mps 637 mmHg 38%
    08:00 +24°C° 0 mm 1 mps 637 mmHg 34%
    09:00 +25°C° 0 mm 1 mps 638 mmHg 31%
    10:00 +27°C° 0 mm 2 mps 638 mmHg 29%
    11:00 +28°C° 0 mm 2 mps 638 mmHg 26%
    12:00 +29°C° 0 mm 3 mps 638 mmHg 25%
    13:00 +29°C° 0 mm 3 mps 638 mmHg 23%
    14:00 +30°C° 0 mm 3 mps 637 mmHg 22%
    15:00 +29°C° 0 mm 4 mps 637 mmHg 22%
    16:00 +29°C° 0 mm 4 mps 637 mmHg 22%
    17:00 +29°C° 0 mm 4 mps 637 mmHg 23%
    18:00 +27°C° 0 mm 3 mps 637 mmHg 24%
    19:00 +26°C° 0 mm 3 mps 637 mmHg 26%
    20:00 +25°C° 0 mm 2 mps 637 mmHg 28%
    21:00 +24°C° 0 mm 2 mps 637 mmHg 30%
    22:00 +24°C° 0 mm 2 mps 637 mmHg 32%
    23:00 +23°C° 0 mm 2 mps 637 mmHg 34%

    26 September, Wednesday

    Time Temperature Precipitation Wind Pressure Humidity
    00:00 +21°C° 0 mm 2 mps 637 mmHg 40%
    01:00 +20°C° 0 mm 2 mps 637 mmHg 45%
    02:00 +19°C° 0 mm 2 mps 637 mmHg 51%
    03:00 +19°C° 0 mm 2 mps 636 mmHg 57%
    04:00 +18°C° 0 mm 2 mps 636 mmHg 62%
    05:00 +18°C° 0 mm 1 mps 636 mmHg 68%
    06:00 +19°C° 0 mm 1 mps 637 mmHg 64%
    07:00 +20°C° 0 mm 1 mps 637 mmHg 60%
    08:00 +21°C° 0 mm 1 mps 638 mmHg 57%
    09:00 +23°C° 0 mm 1 mps 638 mmHg 47%
    10:00 +25°C° 0 mm 2 mps 638 mmHg 38%
    11:00 +27°C° 0 mm 2 mps 638 mmHg 29%
    12:00 +28°C° 0 mm 3 mps 638 mmHg 25%
    13:00 +29°C° 0 mm 3 mps 638 mmHg 22%
    14:00 +30°C° 0 mm 4 mps 637 mmHg 19%
    15:00 +30°C° 0 mm 4 mps 637 mmHg 19%
    16:00 +30°C° 0 mm 4 mps 637 mmHg 19%
    17:00 +30°C° 0 mm 3 mps 637 mmHg 19%
    18:00 +28°C° 0 mm 3 mps 637 mmHg 22%
    19:00 +26°C° 0 mm 3 mps 636 mmHg 25%
    20:00 +25°C° 0 mm 2 mps 636 mmHg 28%
    21:00 +24°C° 0 mm 2 mps 636 mmHg 30%
    22:00 +23°C° 0 mm 2 mps 636 mmHg 32%
    23:00 +22°C° 0 mm 1 mps 636 mmHg 33%
    Show more